Weather History for KGIF - August, 2013

Change the Weather History Date:

Sunday, August 11, 2013

  Actual Average Record
Temperature  
Mean Temperature 84 °F -  
Max Temperature 93 °F 92 °F 99 °F (1987)
Min Temperature 75 °F 72 °F 66 °F (1959)
Cooling Degree Days 19    
Growing Degree Days 34 (Base 50)    
Moisture  
Dew Point 72 °F    
Average Humidity 69    
Maximum Humidity 94    
Minimum Humidity 37    
Precipitation  
Precipitation 0.00 in - - ()
Sea Level Pressure  
Sea Level Pressure 30.14 in    
Wind  
Wind Speed 6 mph (ESE)    
Max Wind Speed 14 mph    
Max Gust Speed -    
Visibility 10 miles    
Events      
Averages and records for this station are not official NWS values.
T = Trace of Precipitation, MM = Missing Value Source: NWS Daily Summary

Daily Weather History Graph

Daily Weather History Graph

Search for Another Location

Airport or City:

Trip Planner

Search our weather history database for the weather conditions in past years. The results will help you decide how hot, cold, wet, or windy it might be!

Date:

Astronomy

Aug. 11, 2013 Rise Set
Actual Time 6:55 AM EDT 8:08 PM EDT
Civil Twilight 6:30 AM EDT 8:33 PM EDT
Nautical Twilight 6:00 AM EDT 9:03 PM EDT
Astronomical Twilight 5:30 AM EDT 9:33 PM EDT
Moon 11:11 AM EDT (8/11) 10:55 PM EDT (8/11)
Length of Visible Light 14h 03m
Length of Day
13h 13m
Waxing Crescent, 22% of the Moon is Illuminated
Aug 11
Waxing Crescent
Aug 14
First Quarter
Aug 20
Full
Aug 28
Last Quarter
Sep 5
New

Hourly Weather History & Observations

Time (EDT) Temp. Heat Index Dew Point Humidity Pressure Visibility Wind Dir Wind Speed Gust Speed Precip Events Conditions
12:53 AM 80.1 °F 84.2 °F 73.0 °F 79% 30.15 in 10.0 mi SE 4.6 mph - N/A   Clear
1:53 AM 78.1 °F - 73.9 °F 87% 30.15 in 10.0 mi ESE 5.8 mph - N/A   Clear
2:53 AM 77.0 °F - 73.9 °F 90% 30.14 in 10.0 mi ESE 3.5 mph - N/A   Clear
3:53 AM 75.9 °F - 73.9 °F 94% 30.13 in 9.0 mi ESE 5.8 mph - N/A   Clear
4:53 AM 77.0 °F - 73.9 °F 90% 30.13 in 9.0 mi ESE 4.6 mph - N/A   Clear
5:53 AM 77.0 °F - 73.9 °F 90% 30.14 in 9.0 mi ESE 4.6 mph - N/A   Clear
6:53 AM 77.0 °F - 73.9 °F 90% 30.14 in 9.0 mi ESE 3.5 mph - N/A   Clear
7:53 AM 78.1 °F - 75.9 °F 93% 30.15 in 7.0 mi East 4.6 mph - N/A   Clear
8:53 AM 80.1 °F 85.4 °F 75.9 °F 87% 30.17 in 9.0 mi ESE 4.6 mph - N/A   Clear
9:53 AM 82.9 °F 89.4 °F 73.9 °F 74% 30.17 in 10.0 mi SSE 6.9 mph - N/A   Clear
10:53 AM 86.0 °F 91.5 °F 71.1 °F 61% 30.18 in 10.0 mi SE 8.1 mph - N/A   Clear
11:53 AM 88.0 °F 93.8 °F 71.1 °F 57% 30.17 in 10.0 mi Variable 4.6 mph - N/A   Clear
12:53 PM 89.1 °F 94.1 °F 70.0 °F 53% 30.16 in 10.0 mi South 6.9 mph - N/A   Clear
1:53 PM 93.0 °F 99.0 °F 70.0 °F 47% 30.15 in 10.0 mi NE 8.1 mph - N/A   Partly Cloudy
2:53 PM 93.0 °F 97.9 °F 69.1 °F 45% 30.12 in 10.0 mi East 9.2 mph - N/A   Scattered Clouds
3:53 PM 93.9 °F 99.1 °F 69.1 °F 44% 30.10 in 10.0 mi NE 6.9 mph - N/A   Partly Cloudy
4:53 PM 93.9 °F 96.1 °F 64.9 °F 38% 30.09 in 10.0 mi East 6.9 mph - N/A   Clear
5:53 PM 93.0 °F 94.2 °F 63.0 °F 37% 30.08 in 10.0 mi SE 6.9 mph - N/A   Clear
6:53 PM 91.9 °F 95.4 °F 66.9 °F 44% 30.08 in 10.0 mi ESE 6.9 mph - N/A   Clear
7:53 PM 88.0 °F 95.6 °F 73.0 °F 61% 30.09 in 10.0 mi East 13.8 mph - N/A   Partly Cloudy
8:53 PM 84.9 °F 91.4 °F 73.0 °F 67% 30.12 in 10.0 mi ESE 9.2 mph - N/A   Clear
9:53 PM 82.9 °F 87.5 °F 71.1 °F 67% 30.13 in 10.0 mi ESE 11.5 mph - N/A   Clear
10:53 PM 81.0 °F 85.2 °F 72.0 °F 74% 30.15 in 10.0 mi ESE 6.9 mph - N/A   Clear
11:53 PM 80.1 °F 84.5 °F 73.9 °F 81% 30.15 in 10.0 mi ESE 6.9 mph - N/A   Clear